Updated10/12/2019 23:35 
 

GeoURL
free counters
Scottish Weather Network UK Weather Network Cumulus Top Weather Sites

Peebles Weather - Ship Tracking / AIS

Raw Data, Raw Data Expanded

Ignore low humidity and Dew Point values. Something wrong with the sensor.
Daytime temperatures are in direct sunlight so may be higher than official air temperature values.
As with any other website, we log your IP address and browser type in the server logs for diagnostic reasons. Cookies are used to record visit time and gauges preferences. No personal information is stored or processed.

All times are in local time (GMT, or BST in summer) unless specified.

2019/12/10 23:20 EGPH 102320Z 23015KT 9999 FEW009 SCT019 BKN033 04/02 Q0993
3.2°C 1.2 mm 21.9 mm 21.9 mm 5.9 mph 10.7 mph 990.0 hPa 10% X-Ray Solar Flare Level
Planetary K-Index
Planetary K-Index History
Station Warn Rain Snow Flood Wind Ltng Heat Cold Glob Moon Temp Rain 1h Rain Tue Rain 24h Wind 10m Gust Pressure Hum Proton Levels

2.041 m Waxing Gibbous Cold F2-W F: A: Kp:0 SSN:0

Ship Tracking

Map from ShipFinder

XHTML 1.1 | CSS